Weather History for Fort Polk, LA

Change the Weather History Date:

Sunday, February 2, 2014

  Actual Average Record
Temperature  
Mean Temperature 54 °F -  
Max Temperature 70 °F 58 °F 80 °F (1997)
Min Temperature 37 °F 40 °F 19 °F (2011)
Degree Days  
Heating Degree Days 12    
Growing Degree Days 4 (Base 50)    
Moisture  
Dew Point 55 °F    
Average Humidity 97    
Maximum Humidity 100    
Minimum Humidity 88    
Precipitation  
Precipitation 1.09 in - - ()
Sea Level Pressure  
Sea Level Pressure 29.95 in    
Wind  
Wind Speed 10 mph (SE)    
Max Wind Speed 20 mph    
Max Gust Speed 26 mph    
Visibility 5 miles    
Events Fog , Rain    
Averages and records for this station are not official NWS values.
T = Trace of Precipitation, MM = Missing Value Source: NWS Daily Summary

Daily Weather History Graph

Daily Weather History Graph

Search for Another Location

Airport:

Trip Planner

Search our weather history database for the weather conditions in past years. The results will help you decide how hot, cold, wet, or windy it might be!

Date:

Astronomy

Feb. 02, 2014 Rise Set
Actual Time 7:04 AM CST 5:49 PM CST
Civil Twilight 6:38 AM CST 6:14 PM CST
Nautical Twilight 6:09 AM CST 6:43 PM CST
Astronomical Twilight 5:41 AM CST 7:11 PM CST
Moon 8:46 AM CST (2/2) 9:15 PM CST (2/2)
Length of Visible Light 11h 35m
Length of Day
10h 45m
Waxing Crescent, 11% of the Moon is Illuminated
Feb 2
Waxing Crescent
Feb 6
First Quarter
Feb 14
Full
Feb 22
Last Quarter
Mar 1
New

Hourly Weather History & Observations

Time (CST) Temp. Windchill Dew Point Humidity Pressure Visibility Wind Dir Wind Speed Gust Speed Precip Events Conditions
12:24 AM 64.4 °F - 64.4 °F 100% 29.94 in 3.0 mi SSE 9.2 mph - N/A   Overcast
12:55 AM 64.9 °F - 64.0 °F 97% 29.94 in 3.0 mi SSE 11.5 mph - N/A   Overcast
1:26 AM 64.4 °F - 64.4 °F 100% 29.94 in 2.5 mi SSE 6.9 mph - 0.01 in Rain Light Rain
1:38 AM 64.4 °F - 64.4 °F 100% 29.94 in 3.0 mi SSE 8.1 mph - 0.01 in   Overcast
1:55 AM 64.9 °F - 64.0 °F 97% 29.94 in 3.0 mi South 9.2 mph - 0.01 in   Overcast
2:03 AM 64.4 °F - 64.4 °F 100% 29.93 in 2.5 mi South 9.2 mph - N/A   Overcast
2:21 AM 64.4 °F - 64.4 °F 100% 29.93 in 1.8 mi SSE 10.4 mph - N/A   Overcast
2:55 AM 64.9 °F - 64.9 °F 100% 29.94 in 1.5 mi SSE 10.4 mph - 0.00 in   Overcast
3:14 AM 64.4 °F - 64.4 °F 100% 29.92 in 2.0 mi SSE 9.2 mph - N/A   Overcast
3:38 AM 64.4 °F - 64.4 °F 100% 29.92 in 4.0 mi South 8.1 mph - N/A   Overcast
3:55 AM 64.9 °F - 64.9 °F 100% 29.93 in 5.0 mi South 6.9 mph - N/A   Overcast
4:42 AM 64.4 °F - 64.4 °F 100% 29.92 in 1.8 mi South 8.1 mph - N/A   Overcast
4:47 AM 64.4 °F - 64.4 °F 100% 29.92 in 1.0 mi SSE 5.8 mph - N/A   Mist
4:55 AM 64.9 °F - 64.9 °F 100% 29.93 in 0.8 mi South 5.8 mph - N/A   Mist
5:13 AM 64.4 °F - 64.4 °F 100% 29.92 in 0.5 mi SSE 8.1 mph - N/A Fog Fog
5:55 AM 64.0 °F - 64.0 °F 100% 29.92 in 0.5 mi SSE 10.4 mph - N/A Fog Fog
6:26 AM 64.4 °F - 64.4 °F 100% 29.92 in 0.8 mi SSE 8.1 mph - N/A   Mist
6:55 AM 64.9 °F - 64.9 °F 100% 29.93 in 1.0 mi SSE 9.2 mph - N/A   Mist
7:02 AM 64.4 °F - 64.4 °F 100% 29.93 in 1.5 mi SSE 8.1 mph - N/A   Overcast
7:11 AM 64.4 °F - 64.4 °F 100% 29.92 in 2.5 mi SSE 8.1 mph - N/A   Overcast
7:21 AM 64.4 °F - 64.4 °F 100% 29.92 in 1.2 mi SE 9.2 mph - N/A   Overcast
7:23 AM 64.4 °F - 64.4 °F 100% 29.92 in 0.8 mi SE 9.2 mph - N/A   Overcast
7:33 AM 64.4 °F - 64.4 °F 100% 29.92 in 0.5 mi SE 9.2 mph - N/A Fog Fog
7:46 AM 64.4 °F - 64.4 °F 100% 29.93 in 1.0 mi SSE 10.4 mph - 0.00 in Rain Light Rain
7:51 AM 64.4 °F - 64.4 °F 100% 29.93 in 1.5 mi SSE 8.1 mph - 0.01 in Rain Light Rain
7:55 AM 64.9 °F - 64.9 °F 100% 29.93 in 1.2 mi SSE 9.2 mph - 0.03 in Rain Rain
8:06 AM 64.4 °F - 64.4 °F 100% 29.92 in 2.0 mi SE 10.4 mph - 0.02 in Rain Rain
8:18 AM 64.4 °F - 64.4 °F 100% 29.93 in 8.0 mi South 6.9 mph - 0.03 in Rain Light Rain
8:48 AM 66.2 °F - 66.2 °F 100% 29.94 in 4.0 mi SSE 8.1 mph - 0.03 in   Overcast
8:55 AM 66.0 °F - 66.0 °F 100% 29.94 in 4.0 mi South 6.9 mph - 0.03 in Rain Light Rain
9:24 AM 66.2 °F - 66.2 °F 100% 29.94 in 9.0 mi South 8.1 mph - 0.00 in   Overcast
9:55 AM 66.0 °F - 66.0 °F 100% 29.95 in 9.0 mi SSE 8.1 mph - 0.00 in   Overcast
10:35 AM 68.0 °F - 66.2 °F 94% 29.93 in 10.0 mi South 9.2 mph - 0.00 in   Overcast
10:55 AM 68.0 °F - 66.9 °F 96% 29.93 in 9.0 mi South 11.5 mph - 0.01 in Rain Light Rain
11:06 AM 68.0 °F - 68.0 °F 100% 29.92 in 10.0 mi SSE 8.1 mph - 0.00 in   Overcast
11:55 AM 70.0 °F - 66.9 °F 90% 29.89 in 10.0 mi South 9.2 mph - 0.00 in   Overcast
12:07 PM 69.8 °F - 66.2 °F 88% 29.88 in 10.0 mi South 6.9 mph - 0.00 in Rain Light Rain
12:40 PM 69.8 °F - 66.2 °F 88% 29.86 in 1.2 mi Variable 3.5 mph - 0.08 in Rain Rain
12:42 PM 69.8 °F - 66.2 °F 88% 29.86 in 1.0 mi Variable 3.5 mph - 0.08 in Rain Heavy Rain
12:53 PM 66.2 °F - 66.2 °F 100% 29.86 in 0.8 mi WNW 16.1 mph 21.9 mph 0.33 in Rain Heavy Rain
12:55 PM 64.9 °F - 64.0 °F 97% 29.88 in 0.5 mi WNW 13.8 mph 21.9 mph 0.37 in Fog , Rain Heavy Rain
1:03 PM 62.6 °F - 60.8 °F 94% 29.86 in 1.0 mi WNW 4.6 mph - 0.07 in Rain Heavy Rain
1:06 PM 62.6 °F - 62.6 °F 100% 29.86 in 1.2 mi NW 5.8 mph - 0.08 in Rain Heavy Rain
1:09 PM 62.6 °F - 62.6 °F 100% 29.86 in 2.0 mi WNW 5.8 mph - 0.08 in Rain Light Rain
1:13 PM 62.6 °F - 60.8 °F 94% 29.87 in 5.0 mi WNW 8.1 mph - 0.08 in Rain Light Rain
1:27 PM 59.0 °F - 57.2 °F 94% 29.86 in 7.0 mi NNW 16.1 mph - 0.09 in Rain Light Rain
1:55 PM 55.9 °F - 54.0 °F 93% 29.86 in 6.0 mi NNW 16.1 mph - 0.11 in Rain Light Rain
2:55 PM 54.0 °F - 53.1 °F 97% 29.87 in 7.0 mi North 10.4 mph - 0.04 in Rain Light Rain
3:02 PM 53.6 °F - 53.6 °F 100% 29.87 in 9.0 mi NW 11.5 mph - 0.00 in Rain Light Rain
3:36 PM 51.8 °F - 51.8 °F 100% 29.90 in 10.0 mi NNW 15.0 mph - 0.01 in Rain Light Rain
3:55 PM 50.0 °F - 48.9 °F 96% 29.91 in 10.0 mi NNW 19.6 mph 25.3 mph 0.02 in Rain Light Rain
4:16 PM 48.2 °F - 46.4 °F 93% 29.93 in 2.0 mi NNW 17.3 mph 26.5 mph 0.06 in Rain Heavy Rain
4:28 PM 46.4 °F 40.7 °F 44.6 °F 93% 29.94 in 7.0 mi North 12.7 mph - 0.08 in Rain Light Rain
4:45 PM 46.4 °F 39.8 °F 44.6 °F 93% 29.94 in 10.0 mi North 16.1 mph 23.0 mph 0.08 in Rain Light Rain
4:55 PM 46.0 °F 39.9 °F 44.1 °F 93% 29.95 in 10.0 mi North 13.8 mph - 0.08 in Rain Light Rain
5:04 PM 44.6 °F 37.2 °F 42.8 °F 93% 29.94 in 10.0 mi North 17.3 mph 24.2 mph 0.00 in   Overcast
5:30 PM 44.6 °F 36.9 °F 42.8 °F 93% 29.98 in 10.0 mi NNW 18.4 mph 25.3 mph 0.00 in   Overcast
5:55 PM 43.0 °F 35.7 °F 41.0 °F 93% 29.99 in 10.0 mi North 15.0 mph 21.9 mph 0.00 in   Overcast
6:08 PM 42.8 °F 34.8 °F 41.0 °F 93% 29.99 in 7.0 mi North 17.3 mph 24.2 mph 0.00 in Rain Light Rain
6:55 PM 41.0 °F 33.9 °F 39.9 °F 96% 30.01 in 8.0 mi North 12.7 mph - 0.06 in Rain Rain
7:39 PM 39.2 °F 31.6 °F 39.2 °F 100% 30.02 in 6.0 mi North 12.7 mph - 0.10 in Rain Rain
7:50 PM 39.2 °F 33.0 °F 37.4 °F 93% 30.04 in 4.0 mi North 9.2 mph 24.2 mph 0.14 in Rain Rain
7:55 PM 39.0 °F 31.4 °F 37.9 °F 96% 30.04 in 5.0 mi North 12.7 mph - 0.16 in Rain Heavy Rain
8:12 PM 37.4 °F 30.8 °F 37.4 °F 100% 30.04 in 2.5 mi North 9.2 mph - 0.13 in Rain Heavy Rain
8:16 PM 37.4 °F 29.3 °F 37.4 °F 100% 30.05 in 3.0 mi North 12.7 mph - 0.15 in Rain Heavy Rain
8:34 PM 37.4 °F 31.4 °F 37.4 °F 100% 30.06 in 10.0 mi North 8.1 mph - 0.17 in Rain Light Rain
8:44 PM 39.2 °F 32.0 °F 37.4 °F 93% 30.07 in 10.0 mi North 11.5 mph - 0.17 in Rain Light Rain
8:52 PM 39.2 °F 33.6 °F 37.4 °F 93% 30.09 in 10.0 mi NNW 8.1 mph - 0.17 in   Overcast
8:55 PM 39.0 °F 33.4 °F 37.0 °F 93% 30.11 in 10.0 mi NW 8.1 mph - 0.17 in   Overcast
9:04 PM 39.2 °F 32.5 °F 37.4 °F 93% 30.08 in 10.0 mi North 10.4 mph 19.6 mph 0.00 in Rain Light Rain
9:34 PM 39.2 °F 32.5 °F 37.4 °F 93% 30.08 in 10.0 mi NNW 10.4 mph 19.6 mph 0.00 in   Overcast
9:55 PM 37.9 °F 30.0 °F 36.0 °F 93% 30.10 in 10.0 mi NNW 12.7 mph - 0.00 in   Overcast
10:22 PM 37.4 °F 29.3 °F 35.6 °F 93% 30.11 in 10.0 mi North 12.7 mph - N/A   Overcast
10:55 PM 37.0 °F 29.3 °F 36.0 °F 96% 30.13 in 10.0 mi North 11.5 mph 20.7 mph N/A   Overcast
11:02 PM 37.4 °F 28.5 °F 35.6 °F 93% 30.11 in 10.0 mi North 15.0 mph - N/A   Overcast
11:20 PM 37.4 °F 28.9 °F 35.6 °F 93% 30.11 in 10.0 mi North 13.8 mph 21.9 mph N/A   Overcast
11:55 PM 37.0 °F 30.4 °F 35.1 °F 93% 30.14 in 10.0 mi North 9.2 mph 18.4 mph N/A   Overcast